Jenks, OK

1:43 PM CST on January 18, 2017 (GMT -0600)
Jones Jr.

Weather History for KRVS - October, 2012

Change the Weather History Date:

Sunday, October 14, 2012

  Actual Average (KTUL) Record (KTUL)
Temperature  
Mean Temperature 66 °F -  
Max Temperature 79 °F 76 °F 92 °F (1963)
Min Temperature 52 °F 52 °F 33 °F (2002)
Cooling Degree Days 2    
Growing Degree Days 16 (Base 50)    
Moisture  
Dew Point 50 °F    
Average Humidity 62    
Maximum Humidity 90    
Minimum Humidity 28    
Precipitation  
Precipitation 0.00 in - - ()
Sea Level Pressure  
Sea Level Pressure 29.96 in    
Wind  
Wind Speed 5 mph (WSW)    
Max Wind Speed 10 mph    
Max Gust Speed 22 mph    
Visibility 10 miles    
Events      
Averages and records for this station are not official NWS values.
T = Trace of Precipitation, MM = Missing Value Source: NWS Daily Summary

Daily Weather History Graph

Daily Weather History Graph

Search for Another Location

Airport or City:

Trip Planner

Search our weather history database for the weather conditions in past years. The results will help you decide how hot, cold, wet, or windy it might be!

Date:

Astronomy

Oct. 14, 2012 Rise Set
Actual Time 7:30 AM CDT 6:48 PM CDT
Civil Twilight 7:04 AM CDT 7:14 PM CDT
Nautical Twilight 6:34 AM CDT 7:44 PM CDT
Astronomical Twilight 6:05 AM CDT 8:13 PM CDT
Moon 6:31 AM CDT (10/14) 6:09 PM CDT (10/14)
Length of Visible Light 12h 09m
Length of Day
11h 18m
Waning Crescent, 1% of the Moon is Illuminated
Oct 14
Waning Crescent
Oct 15
New
Oct 21
First Quarter
Oct 29
Full
Nov 6
Last Quarter

Hourly Weather History & Observations

Time (CDT) Temp. Dew Point Humidity Pressure Visibility Wind Dir Wind Speed Gust Speed Precip Events Conditions
12:53 AM 66.0 °F 63.0 °F 90% 29.74 in 10.0 mi South 4.6 mph - N/A   Clear
1:53 AM 66.0 °F 60.1 °F 81% 29.74 in 10.0 mi SW 8.1 mph - N/A   Clear
2:53 AM 64.0 °F 55.9 °F 75% 29.77 in 10.0 mi SW 6.9 mph - N/A   Clear
3:53 AM 62.1 °F 54.0 °F 75% 29.78 in 10.0 mi SW 5.8 mph - N/A   Clear
4:53 AM 61.0 °F 50.0 °F 67% 29.79 in 10.0 mi SW 5.8 mph - N/A   Clear
5:53 AM 60.1 °F 50.0 °F 69% 29.81 in 10.0 mi SW 8.1 mph - N/A   Clear
6:53 AM 59.0 °F 50.0 °F 72% 29.86 in 10.0 mi WSW 5.8 mph - N/A   Clear
7:53 AM 60.1 °F 50.0 °F 69% 29.90 in 10.0 mi WSW 5.8 mph - N/A   Clear
8:53 AM 62.1 °F 51.1 °F 67% 29.94 in 10.0 mi Calm Calm - N/A   Clear
9:53 AM 64.9 °F 52.0 °F 63% 29.99 in 10.0 mi Variable 5.8 mph - N/A   Clear
10:53 AM 68.0 °F 52.0 °F 56% 30.02 in 10.0 mi Variable 6.9 mph - N/A   Clear
11:53 AM 72.0 °F 53.1 °F 51% 30.04 in 10.0 mi Variable 4.6 mph - N/A   Clear
12:53 PM 75.0 °F 48.0 °F 38% 30.05 in 10.0 mi NNW 10.4 mph 21.9 mph N/A   Clear
1:53 PM 77.0 °F 45.0 °F 32% 30.04 in 10.0 mi NNW 10.4 mph 16.1 mph N/A   Clear
3:53 PM 79.0 °F 44.1 °F 29% 30.03 in 10.0 mi Variable 5.8 mph - N/A   Clear
4:53 PM 78.1 °F 42.1 °F 28% 30.03 in 10.0 mi NNW 6.9 mph 17.3 mph N/A   Clear
5:53 PM 75.9 °F 42.1 °F 30% 30.04 in 10.0 mi North 6.9 mph - N/A   Clear
6:53 PM 66.9 °F 46.9 °F 49% 30.06 in 10.0 mi Calm Calm - N/A   Clear
7:53 PM 63.0 °F 48.0 °F 58% 30.07 in 10.0 mi Calm Calm - N/A   Clear
8:53 PM 59.0 °F 48.9 °F 69% 30.09 in 10.0 mi Calm Calm - N/A   Clear
9:53 PM 55.0 °F 50.0 °F 83% 30.09 in 10.0 mi Calm Calm - N/A   Clear
10:53 PM 54.0 °F 50.0 °F 86% 30.11 in 10.0 mi Calm Calm - N/A   Clear
11:53 PM 52.0 °F 48.0 °F 86% 30.10 in 10.0 mi Calm Calm - N/A   Unknown